[[{"header":{"parameterUnit":"m.s-1","parameterCategory":1,"la1":30.2991,"la2":30.254,"lo1":-89.0895,"lo2":-89.0444,"dy":0.0017,"dx":0.0017,"nx":28,"ny":28,"refTime":"2024-10-05T21:00:00:Z","depth":0,"parameterNumber":2,"parameterNumberName":"U-component_of_WINDS"},"data":[0,0,0,0,0,0,0,0,0,0,0,0,0,0,0,0,0,0,0,0,0,0,0,0,0,0,0,0,0,0,0,0,0,0,0,0,0,0,0,0,0,0,0,0,0,0,0,0,0,0,0,0,0,0,0,0,0,0,-2.326,-2.3259,0,-2.3225,-2.3224,-2.3224,-2.3221,-2.3222,-2.3222,-2.3223,-2.3186,-2.3185,-2.3183,0,0,0,0,0,0,0,0,0,0,0,0,0,-2.3325,-2.3323,-2.326,-2.3259,-2.3259,-2.3225,-2.3224,-2.3224,-2.3221,-2.3222,-2.3222,-2.3223,-2.3187,-2.3185,-2.3183,0,0,0,0,0,0,0,0,0,0,0,0,0,-2.3294,-2.3323,-2.326,-2.3254,-2.3253,-2.3225,-2.3224,-2.3224,-2.3221,-2.3222,-2.3223,-2.3223,-2.3187,-2.3185,-2.3183,-2.3159,0,0,-2.3177,-2.3176,0,0,0,0,0,0,0,0,-2.3295,-2.3291,-2.3255,-2.3254,-2.3253,-2.3228,-2.3234,-2.3202,-2.3221,-2.3233,-2.3223,-2.3223,-2.32,-2.3197,-2.3189,-2.3157,-2.3155,-2.3177,-2.3176,-2.3175,-2.3174,0,0,0,0,0,0,0,-2.3298,-2.3293,-2.3246,-2.3255,-2.3253,-2.3253,-2.3249,-2.3228,-2.3213,-2.3232,-2.3232,-2.3228,-2.3199,-2.3191,-2.3188,-2.3155,-2.3177,-2.3175,-2.3174,-2.3173,-2.3102,-2.3101,0,0,0,0,0,0,-2.3301,-2.3295,-2.3247,-2.3245,-2.3276,-2.3251,-2.3247,-2.3235,-2.3214,-2.3211,-2.3227,-2.3228,-2.3194,-2.319,-2.3186,-2.3156,-2.3175,-2.3173,-2.3172,-2.3102,-2.3102,-2.3101,0,0,0,0,0,0,-2.3302,-2.3297,-2.3248,-2.327,-2.3263,-2.3249,-2.3237,-2.3234,-2.3226,-2.321,-2.3207,-2.3221,-2.3194,-2.3189,-2.3166,-2.3155,-2.3172,-2.317,-2.3103,-2.3102,-2.3101,-2.3096,0,0,0,0,0,0,-2.3304,-2.3297,-2.3288,-2.3269,-2.3262,-2.3228,-2.3236,-2.3233,-2.3222,-2.3223,-2.3204,-2.3201,-2.3194,-2.3169,-2.3164,-2.3153,-2.3168,-2.3104,-2.3103,-2.3101,-2.3097,-2.3095,-2.3093,0,0,0,0,0,-2.3307,-2.3288,-2.3287,-2.3282,-2.325,-2.3228,-2.3224,-2.3216,-2.3222,-2.3212,-2.3202,-2.3202,-2.3157,-2.3166,-2.3161,-2.3149,-2.3105,-2.3103,-2.3102,-2.3098,-2.3095,-2.3093,0,0,0,0,0,0,-2.3305,-2.3285,-2.3285,-2.3259,-2.3245,-2.3227,-2.3215,-2.3214,-2.3198,-2.3198,-2.319,-2.3186,-2.3162,-2.3153,-2.3164,-2.3124,-2.3132,-2.3129,-2.3131,-2.3128,-2.3126,-2.3129,-2.3167,0,0,0,0,0,-2.3302,-2.3285,-2.3269,-2.3248,-2.3241,-2.3229,-2.3219,-2.3215,-2.32,-2.3194,-2.3182,-2.3167,-2.315,-2.3139,-2.3122,-2.3096,-2.3092,-2.3085,-2.3083,-2.3082,-2.3079,-2.3065,-2.3062,-2.3096,-2.3096,-2.3096,0,0,-2.3294,-2.3282,-2.3272,-2.3247,-2.3236,-2.3219,-2.3224,-2.3206,-2.3193,-2.3191,-2.3168,-2.3159,-2.3142,-2.3117,-2.3105,-2.3109,-2.3069,-2.308,-2.3079,-2.3077,-2.3063,-2.306,-2.3057,-2.3095,-2.3095,-2.3095,0,0,-2.3273,-2.3261,-2.3243,-2.3231,-2.3214,-2.3207,-2.3202,-2.3185,-2.3179,-2.3156,-2.3154,-2.3138,-2.3109,-2.3097,-2.3087,-2.3061,-2.306,-2.3056,-2.3046,-2.3032,-2.3029,-2.3027,-2.3017,-2.3014,-2.3054,-2.3054,-2.3054,0,-2.3266,-2.324,-2.3233,-2.3215,-2.3204,-2.3202,-2.3183,-2.3172,-2.315,-2.3143,-2.3147,-2.311,-2.3099,-2.3071,-2.3065,-2.3057,-2.3052,-2.3058,-2.303,-2.3027,-2.3025,-2.3016,-2.3013,-2.3053,-2.3053,-2.3053,-2.3054,0,-2.3232,-2.3215,-2.3202,-2.3181,-2.3169,-2.315,-2.3141,-2.3129,-2.3126,-2.3118,-2.3095,-2.3081,-2.3061,-2.3055,-2.3051,-2.3027,-2.3029,-2.3032,-2.3039,-2.3022,-2.3013,-2.3009,-2.3053,-2.3053,-2.3053,-2.3053,0,0,-2.3208,-2.3184,-2.3179,-2.317,-2.3151,-2.3137,-2.3119,-2.31,-2.309,-2.3075,-2.3059,-2.3035,-2.3037,-2.3026,-2.3021,-2.3009,-2.299,-2.3013,-2.3013,-2.3009,-2.2962,-2.2959,-2.2955,-2.2989,-2.2989,-2.2988,-2.2963,0,-2.3184,-2.3151,-2.3144,-2.3116,-2.3099,-2.3097,-2.3081,-2.3068,-2.306,-2.3045,-2.3036,-2.3019,-2.3023,-2.3016,-2.3004,-2.2995,-2.298,-2.2997,-2.2974,-2.2974,-2.2978,-2.2951,-2.2949,-2.2925,-2.2959,-2.2959,-2.2958,0,-2.3151,-2.3136,-2.3105,-2.3089,-2.3082,-2.3067,-2.305,-2.3035,-2.302,-2.3015,-2.3003,-2.3,-2.2981,-2.2989,-2.2963,-2.2974,-2.2965,-2.2959,-2.2958,-2.2955,-2.2965,-2.2947,-2.2918,-2.2914,-2.2953,-2.2954,-2.2954,0,-2.3135,-2.3107,-2.3086,-2.3078,-2.3058,-2.3048,-2.3039,-2.3025,-2.3014,-2.2999,-2.2992,-2.2974,-2.2965,-2.2951,-2.2944,-2.2951,-2.2917,-2.2925,-2.2913,-2.2913,-2.2905,-2.2906,-2.2873,-2.29,-2.29,-2.29,-2.29,0,-2.3109,-2.309,-2.3079,-2.3065,-2.3044,-2.3037,-2.3017,-2.3008,-2.2996,-2.2981,-2.2978,-2.2964,-2.2955,-2.2939,-2.2933,-2.2912,-2.2908,-2.2903,-2.2902,-2.2903,-2.2904,-2.2896,-2.2898,-2.2899,-2.2899,-2.29,-2.29,0,-2.3088,-2.3079,-2.3055,-2.3039,-2.3035,-2.302,-2.3006,-2.2993,-2.2985,-2.2966,-2.2961,-2.2949,-2.2931,-2.2922,-2.29,-2.2896,-2.2871,-2.2871,-2.2876,-2.2876,-2.2863,-2.2865,-2.2825,-2.2819,-2.285,-2.285,-2.285,0,-2.3071,-2.3057,-2.3039,-2.3029,-2.302,-2.3004,-2.2993,-2.2986,-2.2974,-2.2956,-2.2945,-2.2927,-2.2912,-2.2883,-2.2872,-2.2855,-2.2854,-2.2841,-2.2851,-2.2853,-2.2853,-2.2854,-2.2853,-2.2839,-2.2839,-2.2839,-2.2839,0,-2.3042,-2.3039,-2.3023,-2.3006,-2.2994,-2.298,-2.2966,-2.2958,-2.2948,-2.2936,-2.2917,-2.2906,-2.2883,-2.2864,-2.2846,-2.2838,-2.2836,-2.2836,-2.2832,-2.2833,-2.2836,-2.2834,-2.2871,-2.2836,-2.2837,-2.2837,-2.2837,-2.2837,-2.3023,-2.301,-2.2996,-2.2979,-2.2968,-2.2955,-2.2942,-2.2933,-2.2918,-2.2898,-2.2895,-2.2875,-2.2861,-2.2837,-2.2827,-2.2812,-2.2815,-2.2809,-2.2807,-2.2806,-2.2805,-2.2839,-2.2808,-2.2808,-2.2809,-2.2809,-2.2809,0,-2.2994,-2.2984,-2.2969,-2.295,-2.2937,-2.2937,-2.2922,-2.2911,-2.2893,-2.288,-2.2866,-2.2844,-2.2827,-2.2815,-2.2797,-2.2787,-2.2786,-2.2783,-2.2783,-2.2781,-2.2804,-2.2809,-2.2784,-2.2784,-2.2784,-2.2784,-2.2784,-2.2784,-2.2977,-2.2955,-2.295,-2.2924,-2.2914,-2.2895,-2.2887,-2.2875,-2.2864,-2.2841,-2.2826,-2.2819,-2.2806,-2.2788,-2.2772,-2.2769,-2.2762,-2.2758,-2.2756,-2.2777,-2.2779,-2.2782,-2.2787,-2.2757,-2.2757,-2.2734,-2.2734,-2.2734]},{"header":{"parameterUnit":"m.s-1","parameterCategory":1,"la1":30.2991,"la2":30.254,"lo1":-89.0895,"lo2":-89.0444,"dy":0.0017,"dx":0.0017,"nx":28,"ny":28,"refTime":"2024-10-05T21:00:00:Z","depth":0,"parameterNumber":3,"parameterNumberName":"V-component_of_WINDS"},"data":[0,0,0,0,0,0,0,0,0,0,0,0,0,0,0,0,0,0,0,0,0,0,0,0,0,0,0,0,0,0,0,0,0,0,0,0,0,0,0,0,0,0,0,0,0,0,0,0,0,0,0,0,0,0,0,0,0,0,-3.1913,-3.1913,0,-3.1934,-3.1934,-3.1934,-3.1981,-3.1982,-3.1983,-3.1984,-3.2004,-3.2004,-3.2003,0,0,0,0,0,0,0,0,0,0,0,0,0,-3.1914,-3.1913,-3.1913,-3.1913,-3.1913,-3.1934,-3.1934,-3.1934,-3.1981,-3.1982,-3.1983,-3.1985,-3.2004,-3.2004,-3.2003,0,0,0,0,0,0,0,0,0,0,0,0,0,-3.1922,-3.1913,-3.1913,-3.1939,-3.1942,-3.1934,-3.1934,-3.1934,-3.1981,-3.1982,-3.1984,-3.1985,-3.2004,-3.2004,-3.2003,-3.1971,0,0,-3.2001,-3.2001,0,0,0,0,0,0,0,0,-3.1921,-3.1922,-3.1935,-3.1937,-3.194,-3.1956,-3.1942,-3.1946,-3.198,-3.1966,-3.1984,-3.1986,-3.1987,-3.1988,-3.1988,-3.1971,-3.1972,-3.2001,-3.2001,-3.2001,-3.2001,0,0,0,0,0,0,0,-3.1921,-3.1921,-3.1921,-3.1935,-3.1938,-3.195,-3.1953,-3.1943,-3.1968,-3.1967,-3.1971,-3.1973,-3.1989,-3.1989,-3.1989,-3.1973,-3.2001,-3.2001,-3.2,-3.2,-3.1934,-3.1933,0,0,0,0,0,0,-3.1916,-3.192,-3.192,-3.1922,-3.1934,-3.1949,-3.1952,-3.195,-3.1968,-3.1972,-3.1971,-3.1975,-3.1989,-3.199,-3.199,-3.1956,-3.2001,-3.2,-3.2,-3.1936,-3.1934,-3.1932,0,0,0,0,0,0,-3.1916,-3.1916,-3.1919,-3.1922,-3.1923,-3.1947,-3.1944,-3.1949,-3.195,-3.1971,-3.1976,-3.1967,-3.199,-3.1991,-3.1976,-3.1957,-3.2,-3.1999,-3.1937,-3.1935,-3.1933,-3.1886,0,0,0,0,0,0,-3.1916,-3.1915,-3.1903,-3.1921,-3.1923,-3.1904,-3.1943,-3.1949,-3.1949,-3.1954,-3.1969,-3.1972,-3.1992,-3.1977,-3.1976,-3.1957,-3.1999,-3.1939,-3.1936,-3.1934,-3.1889,-3.1882,-3.1876,0,0,0,0,0,-3.1916,-3.1887,-3.1902,-3.1902,-3.1908,-3.1903,-3.1904,-3.1927,-3.1947,-3.1935,-3.195,-3.1972,-3.1959,-3.1975,-3.1974,-3.1955,-3.194,-3.1937,-3.1934,-3.1892,-3.1883,-3.1876,0,0,0,0,0,0,-3.1865,-3.189,-3.1907,-3.1883,-3.1891,-3.1911,-3.1897,-3.1917,-3.1919,-3.1923,-3.1951,-3.1954,-3.1936,-3.1944,-3.1961,-3.1927,-3.1954,-3.195,-3.1922,-3.1914,-3.1908,-3.1907,-3.1999,0,0,0,0,0,-3.1851,-3.1845,-3.1868,-3.1845,-3.1848,-3.1872,-3.1871,-3.1888,-3.1897,-3.19,-3.1913,-3.1921,-3.1919,-3.1917,-3.1916,-3.189,-3.1896,-3.1877,-3.1871,-3.1866,-3.1862,-3.1853,-3.1846,-3.1922,-3.1922,-3.1922,0,0,-3.1822,-3.1835,-3.183,-3.1835,-3.1843,-3.1838,-3.1874,-3.1865,-3.1862,-3.1898,-3.1886,-3.1896,-3.1907,-3.1887,-3.1879,-3.1893,-3.1843,-3.1862,-3.1857,-3.1857,-3.1849,-3.1842,-3.1835,-3.192,-3.192,-3.192,0,0,-3.1767,-3.1775,-3.1759,-3.1767,-3.1779,-3.1796,-3.1792,-3.181,-3.1819,-3.1807,-3.1835,-3.1831,-3.1827,-3.1834,-3.1837,-3.1789,-3.181,-3.1787,-3.1754,-3.1745,-3.1739,-3.1734,-3.1719,-3.1713,-3.1784,-3.1784,-3.1784,0,-3.1729,-3.1721,-3.1748,-3.1739,-3.1742,-3.1776,-3.1761,-3.1767,-3.1778,-3.1779,-3.1795,-3.1793,-3.1802,-3.1786,-3.1775,-3.1775,-3.1773,-3.1786,-3.1737,-3.1733,-3.1728,-3.1714,-3.1708,-3.1781,-3.1782,-3.1782,-3.1782,0,-3.1676,-3.1671,-3.1656,-3.1668,-3.1669,-3.1656,-3.1682,-3.168,-3.1698,-3.1713,-3.1702,-3.1715,-3.1719,-3.1716,-3.1732,-3.1704,-3.1713,-3.1732,-3.176,-3.1718,-3.1705,-3.17,-3.1777,-3.1778,-3.1779,-3.178,0,0,-3.1587,-3.1617,-3.1611,-3.1618,-3.1636,-3.1633,-3.1623,-3.1628,-3.1627,-3.1634,-3.1627,-3.1624,-3.1644,-3.1648,-3.1666,-3.1657,-3.1621,-3.1678,-3.1679,-3.1669,-3.1593,-3.1579,-3.1573,-3.1636,-3.1635,-3.1634,-3.1593,0,-3.1538,-3.1523,-3.1548,-3.1528,-3.1525,-3.1559,-3.1551,-3.1562,-3.1576,-3.1576,-3.1592,-3.159,-3.1615,-3.1618,-3.1611,-3.1627,-3.1607,-3.163,-3.1631,-3.1631,-3.1629,-3.1566,-3.155,-3.1511,-3.1588,-3.1587,-3.1587,0,-3.1477,-3.1484,-3.1464,-3.1486,-3.1486,-3.1478,-3.1486,-3.1485,-3.1499,-3.151,-3.1516,-3.1538,-3.1531,-3.1558,-3.155,-3.1566,-3.1568,-3.1577,-3.1576,-3.1577,-3.1607,-3.1568,-3.1499,-3.1494,-3.1579,-3.1579,-3.158,0,-3.1418,-3.1421,-3.1411,-3.1415,-3.144,-3.1435,-3.1445,-3.146,-3.1462,-3.147,-3.1472,-3.1478,-3.1482,-3.1486,-3.151,-3.1527,-3.1501,-3.1529,-3.1511,-3.1511,-3.1505,-3.1505,-3.1437,-3.1503,-3.1503,-3.1503,-3.1503,0,-3.136,-3.1347,-3.1385,-3.1378,-3.1366,-3.1395,-3.1382,-3.1395,-3.1409,-3.1407,-3.1436,-3.1433,-3.1464,-3.1465,-3.1484,-3.1476,-3.1477,-3.1487,-3.1492,-3.1485,-3.1484,-3.1488,-3.1492,-3.1502,-3.1502,-3.1502,-3.1503,0,-3.1291,-3.1316,-3.1307,-3.1333,-3.1339,-3.1329,-3.1351,-3.1347,-3.1364,-3.1361,-3.1362,-3.1389,-3.1392,-3.1416,-3.1424,-3.1437,-3.1423,-3.1433,-3.1419,-3.1423,-3.1405,-3.1407,-3.1338,-3.1331,-3.14,-3.1399,-3.1398,0,-3.1254,-3.1245,-3.1271,-3.1272,-3.1281,-3.1282,-3.1286,-3.1315,-3.1318,-3.1334,-3.1329,-3.1334,-3.1341,-3.1344,-3.1365,-3.1372,-3.1383,-3.1359,-3.1384,-3.1378,-3.1385,-3.1386,-3.1387,-3.1353,-3.1352,-3.1352,-3.1351,0,-3.1185,-3.1199,-3.1203,-3.1213,-3.1217,-3.1226,-3.1236,-3.1235,-3.1268,-3.1269,-3.1274,-3.1279,-3.1289,-3.1295,-3.1306,-3.1317,-3.134,-3.1343,-3.134,-3.1333,-3.1326,-3.1332,-3.1406,-3.1344,-3.1345,-3.1345,-3.1346,-3.1346,-3.1132,-3.1128,-3.1146,-3.1151,-3.1162,-3.1172,-3.1171,-3.1189,-3.1193,-3.1204,-3.1221,-3.1224,-3.124,-3.1258,-3.1268,-3.1271,-3.1284,-3.1278,-3.1277,-3.1276,-3.1273,-3.1325,-3.1273,-3.1273,-3.1273,-3.1273,-3.1273,0,-3.1068,-3.1082,-3.1086,-3.1101,-3.1106,-3.1128,-3.1141,-3.1144,-3.1146,-3.116,-3.1166,-3.1173,-3.118,-3.1202,-3.1211,-3.121,-3.1221,-3.1211,-3.1213,-3.1215,-3.126,-3.1263,-3.1203,-3.1203,-3.1203,-3.1203,-3.1203,-3.1203,-3.1034,-3.1029,-3.1045,-3.1045,-3.106,-3.1063,-3.107,-3.108,-3.1091,-3.1098,-3.1104,-3.1119,-3.1137,-3.1149,-3.1157,-3.1163,-3.1166,-3.1154,-3.1164,-3.1205,-3.1212,-3.1218,-3.1221,-3.1154,-3.1153,-3.1119,-3.1119,-3.1119]}]]